Location: Miles
(41.4492°N, 81.6087°W)
Time: 18:18:20
(UTC+00:00)

Transit 2A - Pass Details

Date: 22 September 2024
Orbit: 590 x 960 km, 66.7° (Epoch: 05 October)

Event Time Altitude Azimuth Distance (km) Brightness Sun altitude
Rises 00:31:08 0° 269° (W) 3,532 11.2 -13.3°
Reaches altitude 10° 00:34:53 10° 292° (WNW) 2,645 10.2 -13.9°
Maximum altitude 00:38:18 15° 326° (NW) 2,332 9.1 -14.6°
Drops below altitude 10° 00:41:48 10° 360° (N) 2,699 9.0 -15.2°
Sets 00:45:42 0° 22° (NNE) 3,648 9.4 -15.9°
